Location: Noordwijk
(52.2400°N, 4.4500°E)
Time: 10:01:55
(UTC+00:00)

KAITUO 1B - Visible Passes

Search period start: 27 November 2022 00:00
Search period end: 07 December 2022 00:00
Orbit: 466 x 485 km, 97.4° (Epoch: 26 November)

Date Brightness Start Highest point End Pass type
(mag) Time Alt. Az. Time Alt. Az. Time Alt. Az.
27 Nov ? 05:34:56 10° NE 05:37:16 17° E 05:39:35 10° SE visible
27 Nov ? 16:15:24 10° ESE 16:17:44 17° ENE 16:20:04 10° NNE visible
27 Nov ? 17:47:17 10° S 17:50:41 49° W 17:54:06 10° NNW visible
28 Nov ? 06:40:11 10° NNE 06:43:42 87° E 06:47:14 10° SSW visible
28 Nov ? 17:20:01 10° SSE 17:23:32 80° ENE 17:27:03 10° NNW visible
29 Nov ? 06:13:10 10° NNE 06:16:31 41° E 06:19:53 10° S visible
29 Nov ? 16:53:10 10° SE 16:56:27 39° ENE 16:59:45 10° N visible
29 Nov ? 18:27:19 10° SW 18:29:53 19° W 18:32:28 10° NW visible
30 Nov ? 05:46:26 10° NE 05:49:14 22° E 05:52:00 10° SE visible
30 Nov ? 16:26:44 10° ESE 16:29:27 21° ENE 16:32:11 10° NNE visible
30 Nov ? 17:59:18 10° SSW 18:02:33 36° W 18:05:49 10° NNW visible
01 Dec ? 05:20:30 10° ENE 05:21:47 12° E 05:23:04 10° ESE visible
01 Dec ? 17:31:48 10° S 17:35:17 75° WSW 17:38:49 10° NNW visible
02 Dec ? 06:24:48 10° NNE 06:28:17 57° E 06:31:46 10° S visible
02 Dec ? 17:04:42 10° SSE 17:08:06 52° ENE 17:11:32 10° N visible
02 Dec ? 18:39:40 10° SW 18:41:41 15° W 18:43:43 10° NW visible
03 Dec ? 05:57:52 10° NE 06:00:58 28° E 06:04:04 10° SSE visible
03 Dec ? 16:38:01 10° SE 16:41:00 27° ENE 16:44:01 10° N visible
03 Dec ? 18:11:13 10° SSW 18:14:14 27° W 18:17:17 10° NW visible
04 Dec ? 05:31:22 10° NE 05:33:31 15° E 05:35:39 10° SE visible
04 Dec ? 16:11:50 10° E 16:13:59 16° ENE 16:16:08 10° NNE visible
04 Dec ? 17:43:27 10° S 17:46:53 55° W 17:50:20 10° NNW visible
05 Dec ? 06:36:18 10° NNE 06:39:51 78° ESE 06:43:23 10° S visible
05 Dec ? 17:16:07 10° SSE 17:19:36 71° ENE 17:23:06 10° N visible
05 Dec ? 18:52:14 10° WSW 18:53:19 11° W 18:54:24 10° WNW visible
06 Dec ? 06:09:11 10° NNE 06:12:30 37° E 06:15:49 10° SSE visible
06 Dec ? 16:49:11 10° SE 16:52:23 35° ENE 16:55:37 10° N visible
06 Dec ? 18:23:03 10° SW 18:25:46 21° W 18:28:29 10° NW visible
